Location: *
(38.4303°S, 157.0822°W)
Time: 14:07:33
(UTC+00:00)

Cosmos 773 Rocket - Pass Details

Date: 21 May 2024
Orbit: 744 x 773 km, 74.1° (Epoch: 23 June)

Event Time Altitude Azimuth Distance (km) Brightness Sun altitude
Rises 16:49:05 0° 338° (NNW) 3,196 7.2 -8.0°
Reaches altitude 10° 16:51:25 10° 336° (NNW) 2,283 6.4 -7.6°
Maximum altitude 16:56:36 74° 251° (WSW) 801 4.0 -6.6°
Drops below altitude 10° 17:01:55 10° 165° (SSE) 2,333 6.5 -5.7°
Sets 17:04:20 0° 163° (SSE) 3,271 7.2 -5.2°
